STARLINK-30900, 58423

Orbit data source: Space-Track

STARLINK-30900, 58423 is a payload satellite owned by SpaceX/Seattle (US) in LEO that was launched on Wed, 22 Nov 2023 UTC via an FALCON 9 launch vehicle from the Air Force Eastern Test Range (AFETR). Payload-class satellites include a variety of spacecraft equipped with specific instruments for various scientific and technological missions. These include communications satellites like Starlink; space stations such as the ISS; scientific satellites like the Hubble; Earth observation satellites from companies like Planet Labs, Umbra, and HawkEye 360; GPS; miniature CubeSats for education and research; and military/defense satellites.

Loading next visibility...
Identifier
58423, 2023-180X
Orbit
LEO
Country
Flag of USUS
Related business
Manufacturer
SpaceX/Seattle
Mission
Operational Commercial Communications
Bus & Motor
STARLINK V2M, Unknown motor
Mass
730 kg wet, ~700 kg dry
Launch date (UTC)
2023-11-22 (3 years ago)
Launch vehicle
FALCON 9
Launch site
Air Force Eastern Test Range (AFETR)
Object type
Payload
Rocket body
Debris
Shape & HBR
Box + 2 Pan, 17.7 m
Radar Cross Section
33.884 m², Large (>1 m²)

Expand to show TLE details & history
Last TLE update: 2 days ago

TLE from 2 days ago
0 STARLINK-30900
1 58423U 23180X   26171.12510944  .00000282  00000-0  19790-4 0  9991
2 58423  43.0033 193.8717 0001556 265.2501  94.8173 15.27576612143182
Epoch: 2026-06-20T03:00Z
TLE epoch observation values (Epoch: 2026-06-20T03:00:09.455Z)
Latitude
-0.00003°
Longitude
-119.51195°
Altitude
482.925 km
Speed
7.626 km/s
True Right ascension
12h 55m 29s
True Declination
0° 00' 00"
Sunlit
Object was in daylight at epoch
Visualization orbit readout
Latitude
Unknown
Longitude
Unknown
Altitude
Unknown
Speed
Unknown
Apparent Right ascension
Unknown
Apparent Declination
Unknown
Sunlit
N/A
Visualization observer readout
Local Sidereal Time
21:33:38
Azimuth
Unknown
Elevation
Unknown
Doppler factor
Unknown
Orbital elements
Apogee altitude
486.072 km
Perigee altitude
483.936 km
Semi-major axis
6,863.141 km
Eccentricity
0.00016
Inclination
43.0033°
RAAN
193.8717°
Arg. of periapsis
265.2501°
True anomaly
94.83507°
Mean anomaly
94.8173°
Eccentric anomaly
94.82618°
Mean motion
3.81732 °/min
Orbital period
94.31 mins
BSTAR
0.00001979
Loading maneuver chart data...
Computing Atmospheric mass density...
Loading historical data...
Loading historical data...
Loading historical data...
Loading historical data...
Loading historical data...
Loading historical data...
Loading historical data...

Documentation

Showing up to 5 results
|